Location: Branche des Alpilles
(43.6087°N, 4.6976°E)
Time: 15:56:24
(UTC+00:00)

YAOGAN 1 - Visible Passes

Search period start: 12 April 2021 00:00
Search period end: 22 April 2021 00:00
Orbit: 618 x 620 km, 97.9° (Epoch: 11 April)

Date Brightness Start Highest point End Pass type
(mag) Time Alt. Az. Time Alt. Az. Time Alt. Az.
12 Apr 5.2 19:26:17 10° SW 19:29:33 21° W 19:32:50 10° NW visible
13 Apr 5.5 19:44:31 10° WSW 19:46:47 14° W 19:49:02 10° WNW visible
16 Apr 4.1 18:57:29 10° SSW 19:01:33 40° W 19:05:39 10° NNW visible
17 Apr 4.8 19:15:03 10° SSW 19:18:42 27° W 19:22:23 10° NW visible
18 Apr 5.4 19:32:56 10° SW 19:35:54 18° W 19:38:53 10° NW visible
19 Apr 5.7 19:51:31 10° WSW 19:53:08 12° W 19:54:46 10° WNW visible
